Waarnemingen

Advertentie
Mijn weer
Liscombe, Groot Brittannië (3710): temperatuur & dauwpunt: 17.05.2018 21:00:00 - 23.05.2018 21:00:00 (BST)Liscombe, Groot Brittannië (3710): temperatuur -20cm & temperatuur -100cm: 17.05.2018 21:00:00 - 23.05.2018 21:00:00 (BST)Liscombe, Groot Brittannië (3710): windsnelheid & windstoten: 17.05.2018 21:00:00 - 23.05.2018 21:00:00 (BST)Liscombe, Groot Brittannië (3710): windrichting: 17.05.2018 21:00:00 - 23.05.2018 21:00:00 (BST)Liscombe, Groot Brittannië (3710): luchtdruk: 17.05.2018 21:00:00 - 23.05.2018 21:00:00 (BST)Liscombe, Groot Brittannië (3710): zicht: 17.05.2018 21:00:00 - 23.05.2018 21:00:00 (BST)Liscombe, Groot Brittannië (3710): Zonneschijnduur: 17.05.2018 21:00:00 - 23.05.2018 21:00:00 (BST)Liscombe, Groot Brittannië (3710): neerslag: 17.05.2018 21:00:00 - 23.05.2018 21:00:00 (BST)
Datum & Tijd tt [°C] td [°C] tt -20cm [°C] tt -100cm [°C] ff [km/u] ff [kn] fx [km/u] fx [kn] dd ppp [hPa] vv [km] sd [min] rr [mm]
23.05.2018 21:00:00 13,5 9,1 - - 8 4 - - NO 1022,6 25 6 0,0
23.05.2018 20:00:00 15,7 9,6 - - 13 7 - - ONO 1022,3 26 60 0,0
23.05.2018 19:00:00 17,1 9,6 - - 13 7 - - NO 1022,0 25 60 0,0
23.05.2018 18:00:00 17,6 10,5 - - 18 10 - - ONO 1022,0 22 60 0,0
23.05.2018 17:00:00 18,1 12,2 - - 16 9 - - NO 1022,2 20 60 0,0
23.05.2018 16:00:00 17,8 12,4 - - 16 9 - - NO 1022,4 19 60 0,0
23.05.2018 15:00:00 17,1 11,4 - - 21 11 - - NO 1022,8 20 60 0,0
23.05.2018 14:00:00 16,8 11,7 - - 16 9 - - ONO 1023,0 17 60 0,0
23.05.2018 13:00:00 15,2 10,7 - - 18 10 - - ONO 1023,4 16 60 0,0
23.05.2018 12:00:00 13,3 9,8 - - 22 12 - - NO 1023,6 14 60 0,0
23.05.2018 11:00:00 12,7 10,3 - - 26 14 - - NNO 1023,5 13 60 0,0
23.05.2018 10:00:00 11,4 9,3 16,2 12,9 28 15 - - NO 1023,5 7 60 0,0
23.05.2018 09:00:00 9,9 8,8 - - 31 17 - - NO 1023,5 7 36 0,0
23.05.2018 08:00:00 8,8 8,7 - - 29 16 46 25 NO 1023,5 3,2 0 0,0
23.05.2018 07:00:00 8,7 8,3 - - 29 16 - - NO 1023,1 5 0 0,0
23.05.2018 06:00:00 9,3 8,8 - - 31 17 - - NO 1022,6 6 0 0,0
23.05.2018 05:00:00 9,5 9,0 - - 28 15 - - NO 1022,2 6 0 0,0
23.05.2018 04:00:00 10,1 9,3 - - 24 13 - - NO 1022,3 7 0 0,0
23.05.2018 03:00:00 10,5 9,4 - - 16 9 - - NO 1022,3 12 0 0,0
23.05.2018 02:00:00 10,8 9,3 - - 15 8 - - NNO 1022,4 17 0 0,0
23.05.2018 01:00:00 11,5 8,9 - - 11 6 - - NO 1022,3 22 - 0,0
23.05.2018 00:00:00 12,6 9,1 - - 13 7 - - NO 1021,9 25 0 0,0
22.05.2018 23:00:00 12,9 8,7 - - 11 6 - - NNO 1021,4 25 0 0,0
22.05.2018 22:00:00 12,7 8,9 - - 11 6 - - NNO 1020,8 25 0 0,0
22.05.2018 21:00:00 13,6 8,9 - - 9 5 - - NNO 1019,9 25 6 0,0
22.05.2018 20:00:00 16,0 9,3 - - 8 4 - - NNO 1019,2 29 60 0,0
22.05.2018 19:00:00 18,5 9,3 - - 11 6 - - NNO 1018,6 30 60 0,0
22.05.2018 18:00:00 18,4 8,7 - - 13 7 - - NNO 1018,5 29 60 0,0
22.05.2018 17:00:00 19,1 9,8 - - 9 5 - - O 1018,1 30 60 0,0
22.05.2018 16:00:00 18,6 9,3 - - 11 6 - - NO 1018,1 35 60 0,0
22.05.2018 15:00:00 19,4 10,3 - - 13 7 - - NNO 1018,0 35 60 0,0
22.05.2018 14:00:00 18,6 10,8 - - 11 6 - - NO 1017,9 29 60 0,0
22.05.2018 13:00:00 18,1 10,0 - - 16 9 - - NO 1018,1 35 36 0,0
22.05.2018 12:00:00 16,3 11,0 - - 13 7 - - NNO 1018,2 27 12 0,0
22.05.2018 11:00:00 15,8 11,0 - - 15 8 - - NNO 1017,9 26 12 0,0
22.05.2018 10:00:00 15,2 8,9 16,0 12,7 21 11 - - NO 1017,7 29 36 0,0
22.05.2018 09:00:00 13,6 9,9 - - 13 7 - - NNO 1017,9 25 0 0,0
22.05.2018 08:00:00 12,7 9,7 - - 11 6 - - NNO 1017,6 16 12 0,0
22.05.2018 07:00:00 11,9 8,9 - - 15 8 - - NNO 1017,1 21 0 0,0
22.05.2018 06:00:00 11,9 8,5 - - 13 7 - - NNO 1016,7 20 0 0,0
22.05.2018 05:00:00 11,8 8,9 - - 15 8 - - NNO 1016,6 20 0 0,0
22.05.2018 04:00:00 12,2 9,3 - - 15 8 - - NNO 1016,6 18 0 0,0
22.05.2018 03:00:00 13,1 9,5 - - 15 8 - - NNO 1016,3 20 0 0,0
22.05.2018 02:00:00 13,6 10,0 - - 15 8 - - NNO 1016,5 20 0 0,0
22.05.2018 01:00:00 12,3 9,6 - - 11 6 - - N 1016,7 26 - 0,0
22.05.2018 00:00:00 11,9 8,5 - - 9 5 - - NNW 1016,9 29 0 0,0
21.05.2018 23:00:00 11,7 8,6 - - 8 4 - - N 1017,0 19 0 0,0
21.05.2018 22:00:00 13,0 8,4 - - 16 9 - - N 1017,0 30 0 0,0
21.05.2018 21:00:00 14,1 9,1 - - 11 6 - - NNW 1016,1 27 6 0,0
21.05.2018 20:00:00 16,6 10,0 - - 9 5 - - NNW 1015,7 28 60 0,0
21.05.2018 19:00:00 18,5 10,1 - - 8 4 - - NO 1015,3 28 60 0,0
21.05.2018 18:00:00 19,1 9,5 - - 9 5 - - NNO 1014,9 28 60 0,0
21.05.2018 17:00:00 19,1 10,0 - - 11 6 - - NNO 1015,1 28 60 0,0
21.05.2018 16:00:00 19,0 8,9 - - 8 4 - - NO 1015,4 25 60 0,0
21.05.2018 15:00:00 19,2 9,5 - - 9 5 - - O 1015,6 26 60 0,0
21.05.2018 14:00:00 18,5 8,7 - - 9 5 - - O 1015,7 35 54 0,0
21.05.2018 13:00:00 18,4 10,8 - - 13 7 - - NNO 1015,9 40 60 0,0
21.05.2018 12:00:00 17,1 9,8 - - 13 7 - - ONO 1016,4 35 48 0,0
21.05.2018 11:00:00 16,2 9,5 - - 15 8 - - ONO 1016,7 28 60 0,0
21.05.2018 10:00:00 15,8 10,5 15,7 12,4 15 8 - - ONO 1017,0 22 60 0,0
21.05.2018 09:00:00 15,2 10,5 - - 11 6 - - ONO 1017,1 20 60 0,0
21.05.2018 08:00:00 13,6 9,8 - - 11 6 - - NO 1017,3 20 48 0,0
21.05.2018 07:00:00 11,3 10,0 - - 11 6 - - O 1017,5 14 0 0,0
21.05.2018 06:00:00 8,1 7,3 - - 5 3 - - O 1018,0 9 0 0,0
21.05.2018 05:00:00 7,8 6,1 - - 5 3 - - O 1018,2 10 0 0,0
21.05.2018 04:00:00 7,8 5,6 - - 5 3 - - O 1018,6 15 0 0,0
21.05.2018 03:00:00 8,8 5,6 - - 5 3 - - O 1018,8 16 0 0,0
21.05.2018 02:00:00 8,8 5,0 - - 4 2 - - O 1019,3 22 0 0,0
21.05.2018 01:00:00 9,3 7,5 - - 5 3 - - O 1019,7 15 - 0,0
21.05.2018 00:00:00 9,4 7,1 - - 4 2 - - O 1019,9 14 0 0,0
20.05.2018 23:00:00 11,1 8,2 - - 2 1 - - OZO 1019,7 17 0 0,0
20.05.2018 22:00:00 11,3 7,9 - - 2 1 - - ZO 1019,8 20 0 0,0
20.05.2018 21:00:00 12,6 8,4 - - 4 2 - - Z 1019,5 22 0 0,0
20.05.2018 20:00:00 14,7 9,4 - - 5 3 - - Z 1019,1 23 0 0,0
20.05.2018 19:00:00 16,7 9,6 - - 5 3 - - Z 1019,0 23 54 0,0
20.05.2018 18:00:00 17,7 9,3 - - 9 5 - - Z 1019,0 29 60 0,0
20.05.2018 17:00:00 18,4 9,0 - - 13 7 - - Z 1019,3 30 60 0,0
20.05.2018 16:00:00 18,7 10,0 - - 15 8 - - Z 1019,7 27 60 0,0
20.05.2018 15:00:00 19,3 10,4 - - 11 6 - - Z 1020,1 29 60 0,0
20.05.2018 14:00:00 19,5 11,2 - - 11 6 - - Z 1020,5 29 60 0,0
20.05.2018 13:00:00 18,9 11,3 - - 13 7 - - Z 1021,0 29 60 0,0
20.05.2018 12:00:00 17,8 10,2 - - 15 8 - - Z 1021,3 26 60 0,0
20.05.2018 11:00:00 17,4 11,4 - - 8 4 - - ZZO 1021,6 26 60 0,0
20.05.2018 10:00:00 15,1 8,7 14,9 12,2 11 6 - - Z 1022,3 30 60 0,0
20.05.2018 09:00:00 13,0 6,7 - - 9 5 - - Z 1022,5 35 60 0,0
20.05.2018 08:00:00 11,5 7,3 - - 5 3 - - Z 1022,7 21 48 0,0
20.05.2018 07:00:00 8,9 5,8 - - 4 2 - - ZO 1022,9 20 0 0,0
20.05.2018 06:00:00 7,9 5,9 - - 4 2 - - OZO 1023,0 17 0 0,0
20.05.2018 05:00:00 8,4 4,7 - - 4 2 - - OZO 1022,8 28 0 0,0
20.05.2018 04:00:00 7,6 5,7 - - 2 1 - - NO 1023,1 21 0 0,0
20.05.2018 03:00:00 7,3 4,7 - - 2 1 - - O 1023,2 23 0 0,0
20.05.2018 02:00:00 8,2 5,4 - - 5 3 - - NNW 1023,2 27 0 0,0
20.05.2018 01:00:00 8,0 4,7 - - 5 3 - - NNW 1023,5 30 - 0,0
20.05.2018 00:00:00 8,9 4,2 - - 5 3 - - NNW 1023,7 35 0 0,0
19.05.2018 23:00:00 9,3 4,5 - - 5 3 - - NNW 1023,6 35 0 0,0
19.05.2018 22:00:00 9,7 5,3 - - 5 3 - - NNW 1023,6 30 0 0,0
19.05.2018 21:00:00 11,8 6,1 - - 5 3 - - W 1023,2 35 6 0,0
19.05.2018 20:00:00 13,9 8,0 - - 11 6 - - Z 1022,6 29 60 0,0
19.05.2018 19:00:00 16,3 8,7 - - 13 7 - - ZZW 1022,2 30 30 0,0
19.05.2018 18:00:00 19,2 9,6 - - 8 4 - - ZZW 1021,7 35 60 0,0
19.05.2018 17:00:00 19,8 10,0 - - 8 4 - - Z 1021,6 35 60 0,0
19.05.2018 16:00:00 20,2 9,9 - - 5 3 - - Z 1022,0 40 42 0,0
19.05.2018 15:00:00 19,4 9,2 - - 8 4 - - Z 1022,4 45 60 0,0
19.05.2018 14:00:00 17,7 7,9 - - 8 4 - - Z 1023,0 40 6 0,0
19.05.2018 13:00:00 16,2 7,7 - - 4 2 - - WNW 1023,6 35 6 0,0
19.05.2018 12:00:00 16,1 7,5 - - 4 2 - - ONO 1023,8 40 24 0,0
19.05.2018 11:00:00 17,3 9,1 - - 8 4 - - ZW 1023,6 45 60 0,0
19.05.2018 10:00:00 16,9 9,0 14,2 12,0 5 3 - - Z 1023,8 40 60 0,0
19.05.2018 09:00:00 14,2 9,0 - - 4 2 - - ZZW 1024,1 26 60 0,0
19.05.2018 08:00:00 13,8 10,4 - - 2 1 - - ZZW 1024,0 21 48 0,0
19.05.2018 07:00:00 8,9 7,3 - - 5 3 - - NNW 1024,4 19 0 0,0
19.05.2018 06:00:00 7,9 6,0 - - 8 4 - - N 1024,5 21 0 0,0
19.05.2018 05:00:00 7,0 4,9 - - 4 2 - - N 1024,6 17 0 0,0
19.05.2018 04:00:00 7,5 5,5 - - 8 4 - - N 1024,6 23 0 0,0
19.05.2018 03:00:00 8,4 6,3 - - 11 6 - - N 1024,7 24 0 0,0
19.05.2018 02:00:00 8,6 6,1 - - 9 5 - - NNW 1024,9 24 0 0,0
19.05.2018 01:00:00 8,4 4,5 - - 11 6 - - NNW 1025,1 30 - 0,0
19.05.2018 00:00:00 7,4 3,9 - - 9 5 - - NNW 1025,3 28 0 0,0
18.05.2018 23:00:00 7,6 3,3 - - 9 5 - - NNW 1025,3 30 0 0,0
18.05.2018 22:00:00 9,1 4,3 - - 8 4 - - NNW 1025,2 30 0 0,0
18.05.2018 21:00:00 10,8 4,5 - - 11 6 - - NNW 1024,8 35 6 0,0
18.05.2018 20:00:00 12,9 6,0 - - 8 4 - - NO 1024,4 35 60 0,0
18.05.2018 19:00:00 14,5 5,8 - - 8 4 - - ONO 1024,3 40 60 0,0
18.05.2018 18:00:00 16,0 6,5 - - 9 5 - - NNO 1024,1 40 54 0,0
18.05.2018 17:00:00 16,0 7,5 - - 8 4 - - ONO 1024,1 35 12 0,0
18.05.2018 16:00:00 15,3 5,8 - - 8 4 - - ONO 1024,5 35 30 0,0
18.05.2018 15:00:00 14,7 7,8 - - 9 5 - - NO 1024,8 30 0 0,0
18.05.2018 14:00:00 15,2 7,9 - - 4 2 - - N 1024,9 30 0 0,0
18.05.2018 13:00:00 14,2 6,9 - - 8 4 - - WNW 1025,5 30 0 0,0
18.05.2018 12:00:00 14,9 7,0 - - 4 2 - - ONO 1025,4 30 0 0,0
18.05.2018 11:00:00 14,5 7,6 - - 4 2 - - W 1025,4 35 48 0,0
18.05.2018 10:00:00 13,0 6,7 14,2 12,0 5 3 - - Z 1025,9 30 60 0,0
18.05.2018 09:00:00 10,3 5,6 - - 5 3 - - ZZW 1026,6 27 60 0,0
18.05.2018 08:00:00 9,2 6,6 - - 2 1 - - Z 1026,7 25 42 0,0
18.05.2018 07:00:00 6,4 4,5 - - 2 1 - - OZO 1026,8 23 0 0,0
18.05.2018 06:00:00 5,1 2,9 - - 4 2 - - N 1026,9 23 0 0,0
18.05.2018 05:00:00 6,0 3,7 - - 13 7 - - O 1026,5 26 0 0,0
18.05.2018 04:00:00 5,7 3,0 - - 9 5 - - O 1026,7 27 0 0,0
18.05.2018 03:00:00 6,7 3,1 - - 9 5 - - O 1026,6 27 0 0,0
18.05.2018 02:00:00 7,0 3,1 - - 9 5 - - O 1026,7 27 0 0,0
18.05.2018 01:00:00 7,2 2,8 - - 9 5 - - O 1026,9 30 - 0,0
18.05.2018 00:00:00 6,7 3,0 - - 13 7 - - ONO 1027,1 30 0 0,0
17.05.2018 23:00:00 7,6 3,0 - - 15 8 - - NO 1026,9 30 0 0,0
17.05.2018 22:00:00 7,5 2,6 - - 15 8 - - ONO 1027,0 30 0 0,0
17.05.2018 21:00:00 7,9 2,4 - - 13 7 - - ONO 1026,7 35 0 0,0

tt = temperatuur
td = dauwpunt
tt -20cm = temperatuur -20cm
tt -100cm = temperatuur -100cm
ff = windsnelheid
fx = windstoten
dd = windrichting
ppp = luchtdruk
vv = zicht
sd = Zonneschijnduur
rr = neerslag

Weerstations in de omgeving